Terminal Aerodrome Forecast
Issued by NWS Twin Cities, MN

Home | Current Version | Previous Version | Text Only | Print | Product List | Glossary Off
Versions: 1 2 3 4 5 6 7 8 9 10 11 12 13 14 15 16 17 18 19 20 21 22 23 24 25 26 27 28 29 30

000
FTUS43 KMPX 241100
TAFMSP
TAF
KMSP 241124Z 2412/2518 34010KT P6SM OVC010
     FM241700 32008KT P6SM OVC015
     FM242000 31008KT P6SM OVC018
     FM250300 25005KT P6SM BKN025 OVC080
     FM250900 19006KT P6SM SCT020 OVC040=

USA.gov is the U.S. government's official web portal to all federal, state and local government web resources and services.